McCook, NE

5:40 AM CST on December 07, 2019 (GMT -0600)
McCook Municipal

Weather History for KMCK - September, 2019

Change the Weather History Date:

Saturday, September 7, 2019

  Actual Average Record
Temperature  
Mean Temperature 72 °F 68 °F  
Max Temperature 84 °F 83 °F 106 °F (2013)
Min Temperature 61 °F 53 °F 38 °F (2010)
Cooling Degree Days 8    
Growing Degree Days 22 (Base 50)    
Moisture  
Dew Point 62 °F    
Average Humidity 74    
Maximum Humidity 90    
Minimum Humidity 51    
Precipitation  
Precipitation 0.00 in 0.05 in 1.01 in (1951)
Month to date precipitation 0.00 0.36  
Year to date precipitation 17.33 18.07  
Sea Level Pressure  
Sea Level Pressure 29.95 in    
Wind  
Wind Speed 5 mph ()    
Max Wind Speed 9 mph    
Max Gust Speed -    
Visibility 10.0 miles    
Events      
T = Trace of Precipitation, MM = Missing Value Source: Averaged Metar Reports

Daily Weather History Graph

Daily Weather History Graph

Search for Another Location

Airport or City:

Astronomy

Sep. 07, 2019 Rise Set
Actual Time 7:15 AM CDT 8:04 PM CDT
Civil Twilight 6:47 AM CDT 8:32 PM CDT
Nautical Twilight 6:15 AM CDT 9:04 PM CDT
Astronomical Twilight 5:41 AM CDT 9:38 PM CDT
Moon 4:22 PM CDT 1:08 AM CDT
Length of Visible Light 13h 44m
Length of Day
12h 49m
Waxing Gibbous, 66% of the Moon is Illuminated
Sep 7
Waxing Gibbous
Sep 13
Full
Sep 21
Last Quarter
Sep 28
New
Oct 5
First Quarter

Hourly Weather History & Observations

Time (CDT) Temp. Heat Index Dew Point Humidity Pressure Visibility Wind Dir Wind Speed Gust Speed Precip Events Conditions
12:53 AM 64.9 °F - 57.9 °F 78% 30.07 in 10.0 mi East 8.1 mph - N/A   Unknown
1:53 AM 64.9 °F - 59.0 °F 81% 30.06 in 10.0 mi ESE 6.9 mph - N/A   Unknown
2:53 AM 63.0 °F - 59.0 °F 87% 30.05 in 10.0 mi East 4.6 mph - N/A   Unknown
3:53 AM 62.1 °F - 57.9 °F 86% 30.04 in 10.0 mi ENE 3.5 mph - N/A   Unknown
4:53 AM 63.0 °F - 60.1 °F 90% 30.04 in 10.0 mi ENE 5.8 mph - N/A   Unknown
5:53 AM 64.0 °F - 59.0 °F 84% 30.04 in 10.0 mi NE 3.5 mph - N/A   Unknown
6:53 AM 64.0 °F - 60.1 °F 87% 30.03 in 10.0 mi Calm Calm - N/A   Unknown
7:53 AM 64.0 °F - 60.1 °F 87% 30.01 in 10.0 mi ESE 9.2 mph - N/A   Unknown
8:53 AM 64.9 °F - 60.1 °F 84% 29.99 in 10.0 mi SE 9.2 mph - N/A   Unknown
9:53 AM 66.9 °F - 61.0 °F 81% 29.99 in 10.0 mi SSE 8.1 mph - N/A   Unknown
10:53 AM 69.1 °F - 61.0 °F 75% 29.98 in 10.0 mi South 5.8 mph - N/A   Unknown
11:53 AM 73.0 °F - 63.0 °F 71% 29.95 in 10.0 mi SW 8.1 mph - N/A   Unknown
12:53 PM 75.9 °F - 63.0 °F 64% 29.92 in 10.0 mi SSW 6.9 mph - N/A   Unknown
1:53 PM 80.1 °F 81.7 °F 64.0 °F 58% 29.89 in 10.0 mi Calm Calm - N/A   Unknown
2:53 PM 82.0 °F 83.4 °F 64.0 °F 54% 29.87 in 10.0 mi Calm Calm - N/A   Unknown
3:53 PM 82.0 °F 83.8 °F 64.9 °F 56% 29.86 in 10.0 mi ESE 8.1 mph - N/A   Unknown
4:53 PM 82.9 °F 84.4 °F 64.0 °F 53% 29.85 in 10.0 mi ESE 5.8 mph - N/A   Unknown
5:53 PM 84.0 °F 85.4 °F 64.0 °F 51% 29.85 in 10.0 mi East 6.9 mph - N/A   Unknown
6:53 PM 82.0 °F 83.4 °F 64.0 °F 54% 29.85 in 10.0 mi East 5.8 mph - N/A   Unknown
7:53 PM 78.1 °F - 64.9 °F 64% 29.86 in 10.0 mi East 4.6 mph - N/A   Unknown
8:53 PM 73.0 °F - 64.0 °F 73% 29.88 in 10.0 mi SE 5.8 mph - N/A   Unknown
9:53 PM 71.1 °F - 64.0 °F 78% 29.89 in 10.0 mi SE 5.8 mph - N/A   Unknown
10:53 PM 68.0 °F - 64.0 °F 87% 29.89 in 10.0 mi SSW 3.5 mph - N/A   Unknown
11:53 PM 66.0 °F - 62.1 °F 87% 29.89 in 10.0 mi North 5.8 mph - N/A   Unknown